EW3553 Weather Reports


time (UTC)temp
F
wind
direction
speed
knots
gust
knots
rain 1hr
in
rain 24hr
in
rain mn
in
humidity
%
barometer
mb
20260503050029 51 27 0.9 5.2 0.00 0.01 0.00 54 1010.6
20260503044523 51 324 2.6 7.0 0.00 0.01 0.00 53 1010.6
20260503043036 52 17 1.7 7.8 0.00 0.01 0.00 54 1010.5
20260503041519 52 34 2.6 8.7 0.00 0.01 0.00 57 1010.6
20260503040016 52 29 1.7 7.0 0.00 0.01 0.00 57 1010.6
20260503034511 52 34 1.7 7.8 0.00 0.01 0.01 56 1010.5
20260503033016 53 33 0.9 8.7 0.00 0.01 0.01 56 1010.5
20260503031503 53 41 1.7 5.2 0.00 0.01 0.01 56 1010.4
20260503030103 53 36 1.7 10.4 0.00 0.01 0.01 54 1010.5
20260503024554 53 11 1.7 7.0 0.00 0.01 0.01 52 1010.4
20260503023058 53 360 1.7 7.0 0.00 0.01 0.01 51 1010.4
20260503021556 53 350 1.7 5.2 0.00 0.01 0.01 52 1010.6
20260503020050 52 117 0.9 2.6 0.00 0.01 0.01 57 1010.7
20260503014543 51 119 0.0 0.9 0.00 0.01 0.01 73 1010.7
20260503013036 52 119 0.0 0.9 0.00 0.01 0.01 79 1010.7
20260503011532 52 119 0.0 2.6 0.00 0.01 0.01 79 1010.6
20260503010028 53 117 0.9 2.6 0.00 0.01 0.01 78 1010.5
20260503004523 53 117 0.9 2.6 0.00 0.01 0.01 76 1010.3
20260503003018 54 117 0.0 2.6 0.00 0.01 0.01 74 1010.1
20260503001515 54 117 0.0 1.7 0.00 0.01 0.01 72 1010.1
20260503000011 55 117 0.0 1.7 0.00 0.01 0.01 71 1010.0
20260502234505 56 117 0.9 3.5 0.00 0.01 0.01 70 1009.9
20260502233003 56 117 0.0 5.2 0.00 0.01 0.01 69 1009.8
20260502231557 57 116 0.9 3.5 0.00 0.01 0.01 67 1009.7
20260502230053 60 114 1.7 5.2 0.00 0.01 0.01 59 1009.7
20260502224547 60 29 0.9 4.3 0.00 0.01 0.01 47 1009.5
20260502223044 60 30 0.9 2.6 0.00 0.01 0.01 45 1009.6
20260502221539 60 31 2.6 5.2 0.00 0.01 0.01 45 1009.4
20260502220037 60 24 3.5 7.0 0.00 0.01 0.01 50 1009.5
20260502214533 60 19 3.5 9.6 0.00 0.01 0.01 52 1009.6
20260502213046 62 91 1.7 7.0 0.00 0.01 0.01 49 1009.4
20260502211530 61 36 0.9 7.0 0.00 0.01 0.01 48 1009.1
20260502210025 61 331 0.9 4.3 0.00 0.01 0.01 49 1009.1
20260502204532 61 167 2.6 5.2 0.00 0.01 0.01 45 1009.1
20260502203016 62 330 1.7 4.3 0.00 0.01 0.01 47 1009.3
20260502201513 61 278 0.9 7.0 0.00 0.01 0.01 48 1009.6
20260502200008 63 307 0.9 5.2 0.00 0.01 0.01 49 1009.7
20260502194502 62 303 0.0 4.3 0.00 0.01 0.01 51 1009.9
20260502193059 62 302 2.6 8.7 0.00 0.01 0.01 52 1010.2
20260502191602 60 326 1.7 5.2 0.00 0.01 0.01 55 1010.3
20260502190051 59 296 2.6 4.3 0.00 0.01 0.01 57 1010.6
20260502184546 59 285 1.7 6.1 0.00 0.01 0.01 60 1010.7
20260502183047 60 66 0.9 4.3 0.00 0.01 0.01 59 1010.7
20260502181537 59 155 0.0 2.6 0.00 0.01 0.01 64 1010.9
20260502163008 57 333 0.9 3.5 0.00 0.01 0.01 71 1011.5
20260502161501 57 328 0.9 2.6 0.00 0.01 0.01 71 1011.6
20260502160106 56 327 0.0 1.7 0.00 0.01 0.01 74 1011.7
20260502151609 55 71 0.0 1.7 0.00 0.01 0.01 74 1011.8
20260502150125 55 74 0.9 2.6 0.00 0.01 0.01 76 1011.9
20260502123034 51 169 0.0 0.9 0.00 0.01 0.01 92 1012.0
20260502121535 51 169 0.9 3.5 0.00 0.01 0.01 93 1012.1
20260502114534 51 178 0.0 0.9 0.00 0.01 0.01 93 1012.2
20260502113033 50 178 0.0 0.0 0.01 0.01 0.01 92 1012.0
20260502111530 50 178 0.0 0.9 0.01 0.01 0.01 92 1011.7
20260502110032 50 177 0.0 0.0 0.01 0.01 0.01 91 1011.4
20260502104528 50 178 0.9 2.6 0.01 0.01 0.01 89 1011.4
20260502103054 50 178 0.0 0.0 0.00 0.00 0.00 88 1011.8
20260502101533 50 178 0.0 0.9 0.00 0.00 0.00 87 1011.6
20260502071518 51 176 0.0 1.7 0.00 0.00 0.00 83 1011.5
20260502070016 51 176 0.9 2.6 0.00 0.00 0.00 83 1011.7
20260502064513 51 166 0.0 4.3 0.00 0.00 0.00 83 1011.7
20260502063016 51 166 0.9 6.1 0.00 0.00 0.00 82 1011.8
20260502061511 51 190 0.0 2.6 0.00 0.00 0.00 81 1011.9
20260502060009 51 188 0.0 0.9 0.00 0.00 0.00 79 1012.1
20260502054511 51 188 0.0 1.7 0.00 0.00 0.00 79 1012.0
20260502053006 51 188 0.0 2.6 0.00 0.00 0.00 78 1011.7
20260502051505 52 188 0.0 3.5 0.00 0.00 0.00 76 1011.7